• In Deutschland
  • Länderverzeichnis
  • Für 7 Tage
  • Wassertemperatur
  • Satellitenkarten
  • Wetterkarte
  • Widgets
  • user-avatar
    Anmelden

    Stündliche Wetter San Luis

    Heute, 26 Juni, Montag

    Zeit Temperatur Niederschläge Wind Luftdruck Luftfeuchtigkeit
    00:00 +14°C° 0,1 mm 4 m/S 695 mmHg 92%
    01:00 +14°C° 0,1 mm 4 m/S 695 mmHg 92%
    02:00 +13°C° 0 mm 3 m/S 695 mmHg 91%
    03:00 +13°C° 0,1 mm 3 m/S 694 mmHg 92%
    04:00 +13°C° 0,1 mm 3 m/S 694 mmHg 92%
    05:00 +13°C° 0,1 mm 3 m/S 694 mmHg 92%
    06:00 +13°C° 0 mm 3 m/S 694 mmHg 92%
    07:00 +13°C° 0 mm 3 m/S 694 mmHg 92%
    08:00 +12°C° 0 mm 3 m/S 694 mmHg 92%
    09:00 +14°C° 0,1 mm 3 m/S 695 mmHg 87%
    10:00 +16°C° 0,1 mm 3 m/S 695 mmHg 82%
    11:00 +17°C° 0,1 mm 3 m/S 695 mmHg 77%
    12:00 +17°C° 0,4 mm 3 m/S 695 mmHg 77%
    13:00 +17°C° 0,4 mm 3 m/S 695 mmHg 77%
    14:00 +17°C° 0,4 mm 4 m/S 695 mmHg 77%
    15:00 +15°C° 0,4 mm 4 m/S 694 mmHg 80%
    16:00 +14°C° 0,4 mm 5 m/S 694 mmHg 83%
    17:00 +13°C° 0,4 mm 5 m/S 694 mmHg 86%
    18:00 +12°C° 0,9 mm 5 m/S 695 mmHg 87%
    19:00 +12°C° 0,9 mm 5 m/S 695 mmHg 87%
    20:00 +12°C° 0,9 mm 4 m/S 696 mmHg 88%
    21:00 +11°C° 0,6 mm 4 m/S 696 mmHg 88%
    22:00 +11°C° 0,6 mm 4 m/S 696 mmHg 89%
    23:00 +11°C° 0,6 mm 4 m/S 697 mmHg 89%

    Morgen, 27 Juni, Dienstag

    Zeit Temperatur Niederschläge Wind Luftdruck Luftfeuchtigkeit
    00:00 +9°C° 0,4 mm 5 m/S 697 mmHg 89%
    01:00 +9°C° 0,4 mm 5 m/S 697 mmHg 89%
    02:00 +9°C° 0,4 mm 5 m/S 697 mmHg 89%
    03:00 +8°C° 0,2 mm 5 m/S 697 mmHg 89%
    04:00 +8°C° 0,2 mm 5 m/S 697 mmHg 89%
    05:00 +8°C° 0,2 mm 5 m/S 698 mmHg 89%
    06:00 +7°C° 0,1 mm 5 m/S 698 mmHg 89%
    07:00 +7°C° 0,1 mm 5 m/S 699 mmHg 88%
    08:00 +7°C° 0,1 mm 6 m/S 700 mmHg 87%
    09:00 +7°C° 0,1 mm 6 m/S 700 mmHg 85%
    10:00 +7°C° 0,1 mm 6 m/S 701 mmHg 84%
    11:00 +8°C° 0,1 mm 7 m/S 701 mmHg 82%
    12:00 +8°C° 0 mm 7 m/S 701 mmHg 81%
    13:00 +8°C° 0 mm 7 m/S 701 mmHg 79%
    14:00 +8°C° 0 mm 7 m/S 701 mmHg 78%
    15:00 +7°C° 0 mm 6 m/S 701 mmHg 78%
    16:00 +7°C° 0 mm 6 m/S 701 mmHg 78%
    17:00 +7°C° 0 mm 5 m/S 702 mmHg 78%
    18:00 +6°C° 0 mm 5 m/S 702 mmHg 80%
    19:00 +6°C° 0 mm 4 m/S 702 mmHg 83%
    20:00 +5°C° 0 mm 4 m/S 703 mmHg 85%
    21:00 +5°C° 0 mm 3 m/S 703 mmHg 87%
    22:00 +5°C° 0 mm 3 m/S 704 mmHg 88%
    23:00 +5°C° 0 mm 2 m/S 704 mmHg 90%

    übermorgen, 28 Juni, Mittwoch

    Zeit Temperatur Niederschläge Wind Luftdruck Luftfeuchtigkeit
    00:00 +5°C° 0 mm 2 m/S 704 mmHg 91%
    01:00 +5°C° 0 mm 2 m/S 703 mmHg 92%
    02:00 +4°C° 0 mm 2 m/S 703 mmHg 93%
    03:00 +4°C° 0 mm 2 m/S 703 mmHg 93%
    04:00 +4°C° 0 mm 2 m/S 702 mmHg 93%
    05:00 +4°C° 0 mm 2 m/S 702 mmHg 93%
    06:00 +5°C° 0 mm 1 m/S 702 mmHg 91%
    07:00 +5°C° 0 mm 1 m/S 702 mmHg 90%
    08:00 +5°C° 0 mm 1 m/S 702 mmHg 89%
    09:00 +7°C° 0 mm 1 m/S 702 mmHg 79%
    10:00 +9°C° 0 mm 1 m/S 703 mmHg 68%
    11:00 +12°C° 0 mm 1 m/S 703 mmHg 58%
    12:00 +13°C° 0 mm 1 m/S 702 mmHg 54%
    13:00 +14°C° 0 mm 1 m/S 702 mmHg 50%
    14:00 +15°C° 0 mm 1 m/S 701 mmHg 46%
    15:00 +14°C° 0 mm 1 m/S 701 mmHg 50%
    16:00 +13°C° 0 mm 1 m/S 700 mmHg 54%
    17:00 +12°C° 0 mm 1 m/S 700 mmHg 58%
    18:00 +11°C° 0 mm 1 m/S 700 mmHg 61%
    19:00 +10°C° 0 mm 1 m/S 700 mmHg 65%
    20:00 +8°C° 0 mm 2 m/S 700 mmHg 69%
    21:00 +8°C° 0 mm 2 m/S 700 mmHg 68%
    22:00 +8°C° 0 mm 2 m/S 700 mmHg 68%
    23:00 +8°C° 0 mm 2 m/S 700 mmHg 67%

    29 Juni, Donnerstag

    Zeit Temperatur Niederschläge Wind Luftdruck Luftfeuchtigkeit
    00:00 +8°C° 0 mm 2 m/S 700 mmHg 65%
    01:00 +8°C° 0 mm 3 m/S 700 mmHg 62%
    02:00 +8°C° 0 mm 3 m/S 699 mmHg 60%
    03:00 +8°C° 0 mm 3 m/S 699 mmHg 60%
    04:00 +7°C° 0 mm 3 m/S 699 mmHg 60%
    05:00 +7°C° 0 mm 3 m/S 699 mmHg 60%
    06:00 +7°C° 0 mm 3 m/S 699 mmHg 62%
    07:00 +7°C° 0 mm 3 m/S 699 mmHg 64%
    08:00 +7°C° 0 mm 3 m/S 700 mmHg 66%
    09:00 +9°C° 0 mm 3 m/S 700 mmHg 58%
    10:00 +12°C° 0 mm 4 m/S 701 mmHg 49%
    11:00 +14°C° 0 mm 4 m/S 702 mmHg 40%
    12:00 +16°C° 0 mm 3 m/S 701 mmHg 36%
    13:00 +17°C° 0 mm 3 m/S 701 mmHg 31%
    14:00 +18°C° 0 mm 3 m/S 700 mmHg 27%
    15:00 +17°C° 0 mm 2 m/S 700 mmHg 31%
    16:00 +16°C° 0 mm 2 m/S 699 mmHg 36%
    17:00 +15°C° 0 mm 1 m/S 699 mmHg 40%
    18:00 +13°C° 0 mm 1 m/S 699 mmHg 43%
    19:00 +12°C° 0 mm 1 m/S 699 mmHg 46%
    20:00 +11°C° 0 mm 1 m/S 699 mmHg 50%
    21:00 +10°C° 0 mm 2 m/S 700 mmHg 51%
    22:00 +9°C° 0 mm 2 m/S 700 mmHg 51%
    23:00 +9°C° 0 mm 2 m/S 700 mmHg 52%

    30 Juni, Freitag

    Zeit Temperatur Niederschläge Wind Luftdruck Luftfeuchtigkeit
    00:00 +9°C° 0 mm 2 m/S 700 mmHg 52%
    01:00 +9°C° 0 mm 2 m/S 700 mmHg 52%
    02:00 +8°C° 0 mm 2 m/S 700 mmHg 52%
    03:00 +8°C° 0 mm 2 m/S 700 mmHg 52%
    04:00 +8°C° 0 mm 2 m/S 700 mmHg 52%
    05:00 +8°C° 0 mm 1 m/S 700 mmHg 52%
    06:00 +7°C° 0 mm 2 m/S 701 mmHg 53%
    07:00 +7°C° 0 mm 2 m/S 702 mmHg 54%
    08:00 +7°C° 0 mm 2 m/S 702 mmHg 55%
    09:00 +9°C° 0 mm 3 m/S 703 mmHg 50%
    10:00 +11°C° 0 mm 3 m/S 704 mmHg 45%
    11:00 +13°C° 0 mm 4 m/S 705 mmHg 40%
    12:00 +14°C° 0 mm 4 m/S 705 mmHg 38%
    13:00 +14°C° 0 mm 4 m/S 705 mmHg 36%
    14:00 +16°C° 0 mm 3 m/S 704 mmHg 34%
    15:00 +14°C° 0 mm 4 m/S 704 mmHg 39%
    16:00 +13°C° 0 mm 4 m/S 704 mmHg 43%
    17:00 +13°C° 0 mm 4 m/S 704 mmHg 47%
    18:00 +11°C° 0 mm 4 m/S 705 mmHg 52%
    19:00 +10°C° 0 mm 4 m/S 706 mmHg 57%
    20:00 +8°C° 0 mm 4 m/S 706 mmHg 63%
    21:00 +8°C° 0 mm 4 m/S 706 mmHg 64%
    22:00 +7°C° 0 mm 4 m/S 707 mmHg 66%
    23:00 +8°C° 0 mm 3 m/S 707 mmHg 67%

    1 Juli, Samstag

    Zeit Temperatur Niederschläge Wind Luftdruck Luftfeuchtigkeit
    00:00 +7°C° 0 mm 3 m/S 707 mmHg 69%
    01:00 +7°C° 0 mm 3 m/S 707 mmHg 71%
    02:00 +7°C° 0 mm 3 m/S 707 mmHg 73%
    03:00 +7°C° 0 mm 3 m/S 707 mmHg 73%
    04:00 +7°C° 0 mm 3 m/S 707 mmHg 73%
    05:00 +7°C° 0 mm 3 m/S 707 mmHg 72%
    06:00 +7°C° 0 mm 3 m/S 707 mmHg 72%
    07:00 +7°C° 0 mm 3 m/S 707 mmHg 71%
    08:00 +7°C° 0 mm 3 m/S 708 mmHg 70%
    09:00 +9°C° 0 mm 3 m/S 708 mmHg 62%
    10:00 +11°C° 0 mm 4 m/S 708 mmHg 54%
    11:00 +13°C° 0 mm 4 m/S 709 mmHg 46%
    12:00 +14°C° 0 mm 4 m/S 708 mmHg 45%
    13:00 +15°C° 0 mm 4 m/S 707 mmHg 45%
    14:00 +17°C° 0 mm 4 m/S 707 mmHg 44%
    15:00 +15°C° 0 mm 4 m/S 706 mmHg 48%
    16:00 +14°C° 0 mm 4 m/S 706 mmHg 52%
    17:00 +14°C° 0 mm 3 m/S 706 mmHg 56%
    18:00 +12°C° 0 mm 3 m/S 706 mmHg 60%
    19:00 +11°C° 0 mm 3 m/S 706 mmHg 65%
    20:00 +10°C° 0 mm 3 m/S 706 mmHg 70%
    21:00 +10°C° 0 mm 4 m/S 706 mmHg 69%
    22:00 +9°C° 0 mm 5 m/S 706 mmHg 69%
    23:00 +9°C° 0 mm 6 m/S 706 mmHg 69%
    Mehr zeigen